This demonstration page uses our WeatherBlox Daily Observations layout. Learn more.

Left ArrowRight Arrow

Hourly Observations for December 4, 2021

Temp ( °F °C ) Dew Point ( °F °C ) Humidity (%) Winds ( mph kmh ) Pressure ( in mb ) Visibility ( mi km ) Precip ( " mm )
12:15 am 00:15 Clear 25 -3.7 22 -5.4 88 88 WNW 7 11 30.39 1029 10 16 N/A
12:35 am 00:35 Clear 26 -3.6 22 -5.3 88 88 WNW 5 7 30.38 1029 10 16 N/A
12:55 am 00:55 Clear 25 -4.1 22 -5.7 89 89 NW 3 6 30.38 1029 10 16 N/A
1:15 am 01:15 Clear 24 -4.2 21 -6 87 87 N N/A 30.38 1029 10 16 N/A
1:35 am 01:35 Clear 25 -4 22 -5.5 89 89 WNW 6 9 30.38 1029 10 16 N/A
1:55 am 01:55 Clear 22 -5.5 19 -7 89 89 NW 3 6 30.39 1029 10 16 N/A
2:15 am 02:15 Clear 23 -5 20 -6.6 89 89 NNW 6 9 30.40 1029 10 16 N/A
2:35 am 02:35 Clear 23 -5.2 20 -6.9 88 88 N 3 6 30.40 1029 10 16 N/A
2:55 am 02:55 Clear 22 -5.4 19 -7 89 89 N N/A 30.40 1030 10 16 N/A
3:15 am 03:15 Clear 22 -5.5 19 -7.2 88 88 N N/A 30.40 1030 10 16 N/A
3:35 am 03:35 Clear 22 -5.8 19 -7.3 89 89 NW 5 7 30.42 1030 10 16 N/A
3:55 am 03:55 Clear 21 -6 19 -7.4 90 90 N N/A 30.42 1030 10 16 N/A
4:15 am 04:15 Clear 22 -5.7 19 -7.1 90 90 N N/A 30.41 1030 10 16 N/A
4:35 am 04:35 Clear 22 -5.3 19 -7 88 88 S 3 6 30.39 1029 10 16 N/A
4:55 am 04:55 Clear 21 -6 19 -7.4 90 90 N N/A 30.41 1030 10 16 N/A
5:15 am 05:15 Clear 19 -7 17 -8.5 89 89 N 6 9 30.43 1030 10 16 N/A
5:35 am 05:35 Clear 20 -6.5 18 -7.7 91 91 N 6 9 30.42 1030 10 16 N/A
5:55 am 05:55 Clear 20 -6.6 18 -7.9 91 91 N 6 9 30.44 1031 10 16 N/A
6:15 am 06:15 Clear 21 -6.3 19 -7.4 92 92 NE 5 7 30.42 1030 10 16 N/A
6:35 am 06:35 Clear 22 -5.7 20 -6.7 93 93 E 6 9 30.42 1030 10 16 N/A
6:55 am 06:55 Clear 26 -3.5 24 -4.2 95 95 E 6 9 30.40 1030 10 16 N/A
7:15 am 07:15 Partly Cloudy 29 -1.8 28 -2.4 96 96 ESE 7 11 30.39 1029 7 11 N/A
7:35 am 07:35 Cloudy 30 -1.2 28 -2 94 94 ESE 7 11 30.38 1029 7 11 N/A
7:55 am 07:55 Cloudy 31 -0.7 29 -1.4 95 95 ESE 6 9 30.37 1029 7 11 N/A
8:15 am 08:15 Cloudy with Mist and Fog 32 -0.1 31 -0.7 96 96 SE 9 15 30.37 1028 3 4 N/A
8:35 am 08:35 Cloudy with Fog 32 undefined 31 -0.3 98 98 ESE 10 17 30.37 1028 1 1 N/A
8:55 am 08:55 Cloudy with Fog 32 0.1 32 undefined 99 99 E 9 15 30.39 1029 0 0 N/A
9:15 am 09:15 Cloudy with Fog 33 0.3 32 undefined 98 98 ESE 9 15 30.37 1029 0 0 N/A
9:35 am 09:35 Cloudy with Fog 33 0.6 33 0.3 98 98 ESE 9 15 30.36 1028 0 0 N/A
9:55 am 09:55 Cloudy with Fog 34 0.9 33 0.6 98 98 ESE 10 17 30.36 1028 0 0 N/A
10:15 am 10:15 Cloudy with Fog 34 1.1 34 0.9 99 99 ESE 12 19 30.36 1028 1 1 N/A
10:35 am 10:35 Cloudy with Mist and Fog 34 1.1 33 0.8 98 98 ESE 12 19 30.36 1028 1 2 N/A
10:55 am 10:55 Cloudy with Mist and Fog 34 1.2 34 1 99 99 SE 10 17 30.36 1028 1 2 N/A
11:15 am 11:15 Cloudy with Mist and Fog 35 1.4 34 1 97 97 SE 10 17 30.35 1028 2 3 N/A
11:35 am 11:35 Cloudy with Mist and Fog 35 1.7 34 0.9 94 94 SE 9 15 30.34 1027 5 8 N/A
11:55 am 11:55 Cloudy with Mist and Fog 35 1.7 33 0.6 93 93 SSE 7 11 30.34 1027 4 6 N/A
12:15 pm 12:15 Cloudy with Mist and Fog 36 2 33 0.5 90 90 SSE 15 24 30.28 1025 5 8 N/A
12:35 pm 12:35 Cloudy with Mist and Fog 37 2.5 33 0.7 88 88 S 15 24 30.24 1024 5 8 N/A
12:55 pm 12:55 Cloudy 38 3.5 34 1 84 84 SSE 16 26 30.21 1023 7 11 N/A
1:15 pm 13:15 Mostly Cloudy 40 4.5 33 0.8 77 77 S 10 17 30.21 1023 10 16 N/A
1:35 pm 13:35 Mostly Cloudy 41 5.2 33 0.6 72 72 SSE 9 15 30.21 1023 10 16 N/A
1:55 pm 13:55 Partly Cloudy 42 5.7 33 0.4 69 69 SSE 12 19 30.17 1022 10 16 N/A
2:15 pm 14:15 Sunny 43 6.3 33 0.6 67 67 SSE 10 17 30.16 1021 10 16 N/A
2:35 pm 14:35 Sunny 44 6.5 32 0.2 64 64 S 13 20 30.13 1020 10 16 N/A
2:55 pm 14:55 Sunny 45 7 32 undefined 61 61 SSE 14 22 30.12 1020 10 16 N/A
3:15 pm 15:15 Sunny 45 7.4 32 undefined 60 60 SSE 10 17 30.12 1020 10 16 N/A
3:35 pm 15:35 Sunny 45 7.1 32 undefined 61 61 S 13 20 30.11 1020 10 16 N/A
3:55 pm 15:55 Sunny 44 6.8 32 undefined 62 62 SE 9 15 30.11 1020 10 16 N/A
4:15 pm 16:15 Sunny 45 7.2 32 undefined 61 61 SE 10 17 30.09 1019 10 16 N/A
4:35 pm 16:35 Sunny 45 7.1 31 -0.3 60 60 SE 12 19 30.09 1019 10 16 N/A
4:55 pm 16:55 Sunny 44 6.5 31 -0.5 61 61 SSE 12 19 30.08 1019 10 16 N/A
5:15 pm 17:15 Clear 42 5.8 31 -0.6 64 64 SSE 12 19 30.09 1019 10 16 N/A
5:35 pm 17:35 Clear 41 5.1 31 -0.8 66 66 SSE 12 19 30.08 1019 10 16 N/A
5:55 pm 17:55 Clear 41 4.8 30 -1.1 66 66 SSE 10 17 30.07 1018 10 16 N/A
6:15 pm 18:15 Clear 39 4.1 30 -1.3 68 68 SE 7 11 30.08 1019 10 16 N/A
6:35 pm 18:35 Clear 38 3.5 31 -0.4 76 76 SE 12 19 30.06 1018 10 16 N/A
6:55 pm 18:55 Clear 38 3.1 32 -0.2 79 79 SSE 16 26 30.05 1017 10 16 N/A
7:15 pm 19:15 Clear 37 2.7 31 -0.5 80 80 SSE 13 20 30.04 1017 10 16 N/A
7:35 pm 19:35 Clear 36 2.3 31 -0.8 80 80 SSE 12 19 30.03 1017 10 16 N/A
7:55 pm 19:55 Clear 36 2 30 -1 81 81 SSE 12 19 30.04 1017 10 16 N/A
8:15 pm 20:15 Clear 36 2 30 -1 81 81 SSE 10 17 30.04 1017 10 16 N/A
8:35 pm 20:35 Clear 36 2 30 -0.9 81 81 SE 10 17 30.04 1017 10 16 N/A
8:55 pm 20:55 Clear 36 2.1 31 -0.5 83 83 SE 12 19 30.03 1017 10 16 N/A
9:15 pm 21:15 Clear 35 1.7 31 -0.6 85 85 SSE 10 17 30.02 1017 10 16 N/A
9:35 pm 21:35 Clear 34 1.2 31 -0.7 87 87 SSE 9 15 30.02 1017 10 16 N/A
9:55 pm 21:55 Clear 36 2 32 -0.2 86 86 SSE 16 26 30.00 1016 10 16 N/A
10:15 pm 22:15 Clear 36 2 31 -0.3 85 85 SSE 15 24 29.99 1015 10 16 N/A
10:35 pm 22:35 Clear 35 1.6 31 -0.5 86 86 SSE 10 17 29.97 1015 10 16 N/A
10:55 pm 22:55 Clear 35 1.5 31 -0.5 87 87 SSE 7 11 29.96 1015 10 16 N/A
11:15 pm 23:15 Clear 35 1.5 31 -0.6 86 86 SE 7 11 29.96 1015 10 16 N/A
11:35 pm 23:35 Clear 35 1.9 31 -0.5 84 84 S 12 19 29.93 1013 10 16 N/A
11:55 pm 23:55 Clear 36 2 31 -0.5 84 84 SSE 9 15 29.93 1013 10 16 N/A

Powered by AerisWeather